VHHHRPLI

Guest
Details From VHHH - Hong Kong Intl
To RPLI - LAOAG INTL
Flight Number -
Tags decoded
Created
Modified
Stats Distance 448 nm / 829 km
Max Altitude 0 ft / 0 m
Waypoints 3
Social Downloads 0
Likes 0
Share VATSIM

Download

Looking for another format? Having issues loading an existing format? Contact us
Advertisement - Login to hide

Notes

Requested: VHHH TD LAO RPLI

Route

VHHH LAO RPLI

ID Type Via Altitude (ft/m) Position (lat/lon) Dist (leg/tot) Name
O VHHH APT - 0 / 0 22.30899 / 113.91461 - / 0 nm Hong Kong Intl
LAO VOR - 0 / 0 18.17881 / 120.52908 447 / 447 nm LAOAG VOR-DME
O RPLI APT - 0 / 0 18.17614 / 120.53110 0 / 447 nm LAOAG INTL

Altitude Profile

Advertisement - Login to hide

Weather


0- 5 10 15 20 25 30 35+ Temperature / °C

Clouds and Precipitation
Forecast for 2018-12-16 12:00 UTC. Updated an hour ago

Ground ~20,000 ft ~40,000 ft Winds

VHHH

Details ICAO VHHH (HKG)
Name Hong Kong Intl
Region Hong Kong
Timezone Unknown
Stats Elevation 25 ft / 8 m (AMSL)
Location 22.308900° 113.915000°
Runways 2
Magnetic Variation 2.887° W

METAR

VHHH 161000Z 34011KT 7000 SCT020 19/14 Q1021 NOSIG

Decode

TAF

TAF VHHH 160500Z 1606/1712 35010KT 7000 FEW010 SCT030 TX20/1609Z TX22/1706Z TN14/1623Z TEMPO 1606/1610 3500 -RA BR TEMPO 1706/1712 VRB05KT

Decode

Departure Runways

ID Width Length Bearing (true/mag) Surface Threshold Overrun Markings Lighting
07L 197 ft / 60 m 12,461 ft / 3,798 m 70.77° / 73.66° ASPHALT 558 ft / 170 m 974 ft / 297 m PREC-APP CENTERLINE EDGE THRESHOLD ALSF-II TDZ
07R 197 ft / 60 m 12,458 ft / 3,797 m 70.79° / 73.68° ASPHALT 525 ft / 160 m 886 ft / 270 m PREC-APP CENTERLINE EDGE THRESHOLD ALSF-II TDZ
25L 197 ft / 60 m 12,458 ft / 3,797 m 250.80° / 253.69° ASPHALT 0 ft / 0 m 981 ft / 299 m PREC-APP CENTERLINE EDGE THRESHOLD ALSF-II TDZ
25R 197 ft / 60 m 12,461 ft / 3,798 m 250.78° / 253.67° ASPHALT 571 ft / 174 m 978 ft / 298 m PREC-APP CENTERLINE EDGE THRESHOLD ALSF-II TDZ

RPLI

Details ICAO RPLI (LAO)
Name LAOAG INTL
Region Philippines
Timezone Asia/Manila (UTC+8.0)
Stats Elevation 24 ft / 7 m (AMSL)
Location 18.176100° 120.531000°
Runways 1
Magnetic Variation 2.957° W

METAR

RPLI 161000Z 01002KT 9999 FEW018 29/25 Q1012 NOSIG RMK A2988

Decode

TAF

TAF RPLI 160500Z 1606/1706 12008KT 9999 FEW018 TEMPO 1606/1612 07012G24KT FEW018 SCT100

Decode

Destination Runways

ID Width Length Bearing (true/mag) Surface Threshold Overrun Markings Lighting
01 148 ft / 45 m 9,181 ft / 2,798 m 5.41° / 8.36° CONCRETE 1,181 ft / 360 m 0 ft / 0 m PREC-APP CENTERLINE EDGE THRESHOLD
19 148 ft / 45 m 9,181 ft / 2,798 m 185.41° / 188.36° CONCRETE 0 ft / 0 m 0 ft / 0 m PREC-APP CENTERLINE EDGE THRESHOLD

Popular Alternatives